Regional Weather Roundup
Issued by NWS

Home | Current Version | Previous Version | Text Only | Print | Product List | Glossary Off
Versions: 1 2 3 4 5 6 7 8 9 10 11 12 13 14 15 16 17 18 19 20 21 22 23 24 25 26 27 28 29 30 31 32 33 34 35 36 37 38 39 40 41 42 43 44 45 46 47 48 49 50

000
ASUS43 KOAX 151510
RWRNE

WEATHER ROUNDUP FOR NEBRASKA
NATIONAL WEATHER SERVICE OMAHA NE
900 AM CST FRI DEC 15 2017

NOTES: SATELLITE DATA IS BEING USED TO AUGMENT CLOUD COVER ABOVE
       12000 FEET.
       "FAIR" INDICATES FEW OR NO CLOUDS BELOW 12,000 FEET WITH NO
       SIGNIFICANT WEATHER AND/OR OBSTRUCTIONS TO VISIBILITY.


NEZ001>004-019>022-054>056-151600-
NEBRASKA PANHANDLE

CITY           SKY/WX    TMP DP  RH WIND       PRES   REMARKS
SCOTTSBLUFF    CLOUDY    20  14  77 NW6       29.96F WCI  12
ALLIANCE       CLOUDY    29  21  72 W13       29.92F WCI  19
CHADRON        CLOUDY    20  14  77 W6        29.92R WCI  12
GORDON         FAIR      22  16  78 SW7       29.89S WCI  14
KIMBALL        CLOUDY    32  14  46 W17       29.98F WCI  21
SIDNEY         CLOUDY    32  14  47 W16       29.97F WCI  21
$$

NEZ057>060-069>072-079>082-151600-
SOUTHWEST NEBRASKA

CITY           SKY/WX    TMP DP  RH WIND       PRES   REMARKS
NORTH PLATTE   CLOUDY    21  17  84 W6        30.00S WCI  13
IMPERIAL       CLOUDY    22  15  75 W13       30.01S WCI  10
LEXINGTON      CLOUDY    25  19  79 W8        30.00F WCI  16
MCCOOK         CLEAR     20  16  84 W10       30.04F WCI   9
OGALLALA       CLOUDY    22  17  79 W6        29.98F WCI  15
$$

NEZ005>010-023>029-035>040-094-151600-
NORTH CENTRAL NEBRASKA

CITY           SKY/WX    TMP DP  RH WIND       PRES   REMARKS
VALENTINE      CLOUDY    23  18  81 W8        29.90F WCI  14
AINSWORTH      CLOUDY    27  22  82 W6        29.91F WCI  20
BROKEN BOW     CLEAR     25  18  74 W8        29.96F WCI  16
O`NEILL        CLEAR     26  23  87 SW7       29.95R WCI  19
ORD            CLEAR     23  19  85 CALM      29.96F
THEDFORD       CLOUDY    27  20  76 W8        29.93F WCI  18
$$

NEZ041-046>049-061>064-073>077-083>087-151600-
SOUTH CENTRAL NEBRASKA

CITY           SKY/WX    TMP DP  RH WIND       PRES   REMARKS
GRAND ISLAND   CLEAR     27  21  78 SW10      30.03S WCI  17
AURORA         CLEAR     26  23  85 SW7       30.03S WCI  19
HASTINGS       CLEAR     23  18  81 SW7       30.03F WCI  15
HEBRON         SUNNY     28  24  88 SW6       30.10S WCI  21
HOLDREGE       CLEAR     22  18  87 SW9       30.02F WCI  11
KEARNEY        CLOUDY    23  18  81 SW15      30.01F WCI  10
YORK           SUNNY     27  25  93 SW9       30.05S WCI  17
$$

NEZ011>018-030>034-042>045-151600-
NORTHEAST NEBRASKA

CITY           SKY/WX    TMP DP  RH WIND       PRES   REMARKS
NORFOLK        CLOUDY    29  23  78 SW13      29.93F WCI  19
ALBION         CLOUDY    27  23  84 CALM      29.97F
BLAIR          MOSUNNY   33  25  74 SW12      30.01F WCI  24
COLUMBUS       PTCLDY    29  24  82 SW7       30.02F WCI  22
FREMONT        CLOUDY    31  25  76 SW9       30.02F WCI  23
TEKAMAH        CLOUDY    33  23  66 SW13      30.01F WCI  24
WAYNE          CLOUDY    31  26  81 SW6       29.95F WCI  25
$$

NEZ050>053-065>068-078-088>093-151600-
SOUTHEAST NEBRASKA

CITY           SKY/WX    TMP DP  RH WIND       PRES   REMARKS
LINCOLN        SUNNY     30  22  72 SW7       30.08F WCI  23
BEATRICE       SUNNY     28  24  82 SW10      30.09F WCI  19
FALLS CITY     SUNNY     32  25  75 W12       30.12R WCI  23
NEBRASKA CITY  SUNNY     31  26  82 W13       30.08F WCI  21
PLATTSMOUTH    SUNNY     32  25  75 SW13      30.05F WCI  23
$$

NEZ044-045-051>053-067-151600-
OMAHA AREA

CITY           SKY/WX    TMP DP  RH WIND       PRES   REMARKS
BLAIR          MOSUNNY   33  25  74 SW12      30.01F WCI  24
FREMONT        CLOUDY    31  25  76 SW9       30.02F WCI  23
MILLARD        MOSUNNY   33  24  68 W8        30.05F WCI  27
OFFUTT AFB     CLOUDY    33  23  65 W12       30.04F WCI  25
PLATTSMOUTH    SUNNY     32  25  75 SW13      30.05F WCI  23
WAHOO          FAIR      32  24  72 SW9       30.04F WCI  24
$$




USA.gov is the U.S. government's official web portal to all federal, state and local government web resources and services.